Theta_e
317 318 319 321 322 324 324 326 326 325 327 328 332 332 331 331 329 329 329 328 328 329 330 329 329 330 331 331 330 328 328 328
317 318 320 320 322 323 322 323 326 325 326 327 330 330 331 330 329 329 329 330 329 331 331 330 330 330 330 330 329 328 328 329
317 318 319 320 321 322 322 322 324 325 325 327 329 330 329 330 329 329 330 331 330 331 331 330 331 330 328 329 329 328 329 328
317 319 320 320 320 320 321 322 323 325 325 327 327 327 327 329 329 330 330 330 331 331 330 329 330 328 306 313 324 328 330 331
318 319 320 320 320 321 321 323 323 323 324 327 326 327 326 328 328 329 329 329 331 331 330 330 330 329 303 305 311 329 329 330
319 320 322 322 322 322 322 324 322 321 322 326 326 326 326 327 328 327 328 329 330 330 330 331 331 327 301 303 309 328 328 328
322 323 324 323 321 322 321 322 321 321 320 325 325 326 326 326 327 327 326 328 329 328 328 330 330 325 301 302 317 325 326 328
322 324 324 323 323 323 321 321 321 320 320 323 325 325 327 327 329 327 326 329 328 325 327 331 320 325 300 301 318 329 327 328
324 323 322 323 324 323 321 321 320 322 322 322 325 326 328 329 329 327 326 326 325 324 325 327 329 325 318 300 306 324 327 328
323 322 323 324 323 323 322 321 323 324 322 321 323 326 326 326 328 327 325 327 324 323 323 323 326 328 311 300 301 310 314 325
323 322 323 323 323 324 323 323 324 322 322 322 323 323 326 327 327 326 323 325 323 322 321 322 322 324 327 302 299 301 306 327
323 323 322 321 322 323 325 324 322 322 322 323 323 322 324 326 326 325 324 322 321 319 320 321 321 322 325 327 324 319 303 316
322 323 322 321 322 323 325 324 322 322 323 322 322 321 323 325 326 325 324 326 321 322 321 321 322 321 321 316 319 325 326 317
322 322 323 322 321 322 323 323 322 324 322 321 320 319 320 323 325 322 296 302 302 299 304 315 321 308 298 297 298 298 297 296
321 322 323 323 321 322 323 323 322 324 324 324 320 316 319 319 323 324 322 311 300 299 300 300 302 307 295 294 293 293 293 298
322 323 322 322 321 322 323 322 322 323 325 307 320 319 319 319 320 321 322 323 323 323 302 306 297 298 295 292 292 297 307 306
323 323 322 321 321 322 323 322 323 323 323 319 321 320 319 316 320 320 320 321 323 324 324 303 301 294 292 291 292 318 316 315
321 321 321 321 322 323 322 323 323 323 322 309 313 320 319 318 319 320 320 320 320 321 322 322 316 308 316 315 310 316 320 319
325 324 324 324 324 324 322 323 324 322 321 318 310 319 319 319 319 319 320 321 321 320 321 319 302 319 323 323 319 318 320 321
326 325 326 326 325 324 322 323 324 323 322 321 317 319 320 319 322 321 321 320 321 320 321 318 292 317 323 322 321 320 320 322
Wind_Speed
16 16 15 15 14 13 11 9 8 7 7 5 6 6 6 6 6 6 6 6 6 5 5 5 6 6 6 5 6 6 4 5
17 16 15 15 14 13 11 8 7 7 6 6 6 5 5 6 7 7 7 7 7 6 6 6 6 6 6 6 8 6 6 7
17 17 15 15 14 12 11 9 8 8 7 7 6 6 6 8 7 7 8 8 7 7 7 7 6 5 5 7 8 7 7 8
18 18 17 16 15 13 11 10 9 9 8 8 7 8 7 8 8 7 7 8 7 7 7 7 7 5 7 7 7 7 7 8
21 20 18 15 15 13 12 11 10 10 9 9 8 8 8 9 8 8 7 6 6 6 6 6 6 7 6 8 4 7 6 6
18 17 16 15 15 14 12 11 10 10 10 10 9 9 8 9 8 7 6 6 6 6 6 6 5 5 6 7 5 6 6 5
18 17 17 15 15 14 13 12 11 11 11 11 10 10 9 8 8 7 6 7 7 4 5 7 7 6 5 9 8 5 7 7
19 18 17 16 15 14 14 13 12 12 12 11 11 11 10 9 9 7 5 6 7 5 5 6 8 8 5 5 5 7 8 8
19 18 17 16 16 15 15 14 13 12 11 11 10 9 9 10 9 6 7 7 7 6 6 5 7 9 7 5 5 5 6 8
19 18 17 16 17 16 16 15 13 12 12 12 11 9 7 8 9 8 8 9 8 7 7 6 5 7 7 5 4 6 7 7
16 18 18 16 17 17 18 16 14 13 12 12 12 10 8 8 10 9 8 8 7 7 6 6 5 5 6 7 5 7 5 6
16 17 19 19 18 18 17 17 16 14 13 12 11 11 10 8 7 8 8 8 7 7 7 7 7 6 6 6 6 5 6 5
17 18 18 20 20 19 17 17 17 15 13 12 11 10 12 10 8 7 8 9 9 8 7 7 8 8 8 9 9 8 7 7
16 17 15 18 20 20 19 18 18 16 14 12 11 10 10 10 9 7 7 3 8 3 5 8 8 3 13 13 11 9 12 15
17 20 20 18 20 21 20 20 19 17 15 12 11 11 11 11 10 10 10 3 3 7 7 8 7 10 12 13 11 11 12 10
16 18 18 18 19 21 21 21 20 18 16 14 12 12 11 11 11 11 10 10 10 9 7 8 10 9 10 11 14 13 6 5
13 16 16 18 19 19 20 21 19 19 15 13 13 12 12 12 11 11 11 11 10 10 8 5 7 6 8 12 18 9 10 10
12 16 20 20 19 19 20 20 19 16 16 16 14 13 12 12 11 11 11 11 11 10 10 10 9 8 8 9 10 10 11 11
10 13 14 16 17 18 20 20 19 14 14 13 15 13 13 13 12 12 11 10 10 10 11 10 13 13 12 12 11 11 11 11
8 7 12 13 14 17 19 20 18 14 13 13 14 15 13 14 13 13 12 11 11 11 10 9 12 12 11 11 12 12 12 12
Wind_Direction
163 165 163 167 167 167 160 162 164 158 159 170 152 151 157 160 153 159 152 141 140 149 153 147 133 118 111 97 96 86 102 114
164 167 168 170 171 170 163 160 161 155 151 159 146 143 132 142 149 155 152 137 139 140 138 133 123 117 109 115 109 103 98 100
168 169 173 170 170 173 165 161 161 156 148 152 134 125 117 124 137 146 139 130 130 132 136 132 124 120 121 124 110 107 107 106
170 175 176 172 172 176 165 163 157 158 155 152 141 131 129 129 132 134 133 131 137 132 136 137 133 115 123 114 122 121 113 117
176 179 179 174 175 174 170 166 157 160 162 157 151 143 138 135 136 136 137 138 143 143 134 135 134 126 145 129 127 125 115 123
177 178 179 176 173 175 167 165 164 163 167 164 160 154 143 139 143 137 141 143 147 127 126 131 128 119 133 135 142 114 110 119
176 175 175 171 174 174 167 170 168 169 171 171 168 161 155 153 147 140 138 145 141 138 116 128 133 126 145 149 151 127 124 135
168 171 173 172 177 172 168 172 174 177 176 177 174 173 171 170 157 147 136 142 138 141 125 130 124 128 156 157 181 140 139 123
164 166 176 177 171 173 176 175 183 180 175 176 175 174 177 174 155 151 145 140 133 131 125 122 134 138 161 173 144 119 135 132
175 168 176 175 173 176 181 183 184 176 172 175 175 174 176 167 164 150 146 143 137 136 138 140 136 143 140 175 170 140 146 142
189 172 173 175 178 181 184 187 179 174 174 175 176 174 171 173 170 160 154 159 153 155 156 149 149 151 154 145 149 143 141 150
180 188 176 177 182 187 190 179 177 177 178 180 176 175 174 174 177 176 172 173 170 170 169 160 155 159 164 163 167 153 130 113
180 194 187 182 179 187 184 183 178 179 181 178 180 184 184 175 187 182 189 189 184 180 186 178 170 173 178 174 172 175 171 142
192 191 193 188 184 184 182 183 182 178 183 181 181 184 186 188 181 176 54 2 203 188 170 187 189 152 148 166 169 139 136 153
199 194 193 189 186 186 185 182 183 184 186 184 182 186 186 189 191 195 195 146 149 201 183 192 211 180 170 170 149 135 157 165
217 199 188 185 195 189 184 183 182 185 186 173 185 194 192 193 195 198 204 202 202 200 202 206 204 180 168 142 142 134 146 221
229 206 192 187 192 200 185 183 185 184 182 184 190 189 194 197 198 205 207 210 210 209 178 188 144 127 134 149 168 203 205 207
220 203 194 191 192 192 189 184 184 185 190 183 183 185 185 195 202 208 211 213 213 214 206 208 163 156 188 186 196 209 212 212
305 252 211 199 196 181 185 185 182 189 189 180 187 184 191 198 201 206 208 210 214 215 218 210 177 192 204 207 201 206 214 215
323 275 229 208 192 185 186 183 185 186 191 187 188 197 190 195 200 202 208 211 215 217 219 203 169 210 214 213 214 213 215 217